Theta_e
310 310 310 309 309 309 309 309 309 311 313 314 314 313 310 307 305 303 301 301 300 300 300 299 298 296 296 296 295 294 294 294 294 293 292 292 291 291 291 291 291 291 291
310 309 309 309 309 308 308 307 307 307 307 307 306 304 302 300 299 299 298 297 296 296 296 295 295 295 295 294 293 293 293 293 293 292 291 291 290 290 290 290 290 290 290
310 309 309 308 308 307 307 305 304 304 303 302 300 299 298 298 297 296 295 295 295 295 295 294 294 294 293 292 292 292 292 291 291 291 290 290 290 289 289 289 289 289 289
310 309 308 308 307 305 304 303 302 301 299 298 298 298 297 296 295 295 294 294 294 294 294 293 292 291 291 291 291 291 290 290 290 289 288 288 288 288 288 289 289 288 288
310 309 309 307 306 304 302 301 299 297 296 296 296 296 295 294 294 294 293 294 293 293 293 291 290 290 289 289 289 289 289 288 287 287 286 286 286 287 287 286 286 286 286
309 308 308 306 304 303 302 300 298 296 296 296 296 295 294 293 293 293 293 292 292 291 290 289 289 288 288 288 288 287 287 287 286 285 285 285 285 285 285 285 284 285 283
307 307 306 306 304 303 302 300 299 297 295 294 294 293 293 292 292 292 291 291 289 289 288 288 287 287 286 286 286 285 285 285 284 284 284 284 284 284 283 283 283 281 281
307 307 307 306 304 302 300 299 296 294 293 292 291 291 290 290 290 290 289 289 288 286 286 286 286 285 285 285 285 284 284 283 283 283 283 282 282 281 281 281 280 280 279
306 306 305 304 302 300 298 296 295 292 291 290 290 289 289 288 288 288 288 287 286 286 284 284 284 283 284 284 284 283 283 282 282 281 281 281 280 280 279 279 278 279 279
303 303 302 302 300 299 297 296 294 292 291 290 289 289 288 287 286 286 285 284 284 284 283 283 282 281 282 281 282 282 280 281 280 279 279 278 278 278 277 277 277 277 277
302 303 302 300 299 297 295 293 292 291 289 288 288 288 287 286 285 284 285 283 283 282 283 282 281 280 281 280 280 280 280 279 279 278 278 276 276 277 276 276 275 275 274
301 301 302 300 297 295 294 292 290 289 288 287 287 286 285 284 284 282 281 281 281 281 281 280 279 278 279 279 278 278 278 278 277 277 277 275 276 275 275 274 274 273 272
299 299 299 299 297 296 293 290 288 287 287 286 285 284 283 282 281 280 281 280 279 280 279 278 277 277 277 276 277 277 277 276 276 276 275 275 275 275 274 273 272 272 271
297 295 294 294 292 293 292 289 287 287 285 285 284 283 283 281 280 279 279 280 280 279 278 277 277 276 276 275 276 276 275 275 274 274 274 274 273 273 272 272 272 272 271
294 293 290 287 287 287 286 286 286 285 284 285 283 283 283 281 280 280 280 279 278 277 276 276 276 276 275 275 275 275 274 274 273 273 273 272 272 271 271 271 270 270 269
289 289 288 286 285 284 284 283 282 282 282 282 282 282 282 281 280 279 279 279 277 277 278 276 275 275 275 275 274 273 273 273 272 272 271 271 271 270 270 270 269 269 268
285 284 283 283 283 283 282 281 281 280 280 279 280 280 280 280 279 278 277 277 275 276 275 274 276 277 274 273 273 272 272 272 271 271 270 270 269 269 269 268 268 267 267
280 279 279 280 280 280 280 280 279 279 278 277 277 277 278 277 277 276 276 275 274 276 276 276 274 274 273 272 272 272 271 271 270 270 269 269 268 268 267 267 267 267 266
278 278 277 278 278 277 277 277 277 276 276 276 275 274 275 275 275 274 275 274 275 275 274 274 273 272 272 271 271 271 270 270 269 269 268 268 267 267 267 266 266 266 265
276 276 276 276 276 276 276 276 275 275 275 275 275 274 274 273 273 273 274 274 274 274 274 272 271 271 271 270 270 270 270 269 269 268 267 267 267 267 266 266 265 265 264
276 275 275 274 274 274 274 274 274 274 274 274 274 274 273 274 274 273 273 273 273 272 270 270 270 270 270 270 269 269 269 268 268 267 266 266 266 266 266 265 265 264 264
275 274 274 274 274 273 273 273 274 273 273 273 273 273 272 272 272 272 272 272 271 270 270 270 269 269 269 269 268 268 268 267 267 266 266 266 266 266 265 265 264 264 263
274 274 274 274 273 273 273 273 273 273 273 273 273 272 272 272 273 272 270 269 269 269 269 269 269 268 268 268 268 267 267 267 266 266 266 266 265 265 265 264 264 264 263
273 273 273 273 273 273 273 273 273 273 273 272 272 272 272 270 269 269 269 269 269 268 269 269 268 268 268 267 267 267 267 266 266 266 265 265 265 265 264 264 264 263 263
273 273 273 273 272 272 272 272 272 271 270 270 269 269 269 269 269 269 268 268 268 268 268 268 268 268 267 267 267 266 266 266 266 265 265 264 264 264 264 263 263 263 263
273 272 272 271 270 270 270 270 270 269 269 269 269 269 269 269 269 268 268 268 268 268 267 267 267 267 267 267 267 266 266 266 265 265 264 264 264 264 263 263 263 263 263
Wind_Speed
21 22 21 21 21 21 22 22 22 22 22 22 22 21 20 19 17 17 16 16 17 17 17 18 17 16 15 14 13 12 12 12 12 13 9 6 4 5 8 10 13 16 18
24 25 26 25 25 25 25 24 24 22 22 22 21 21 20 19 18 19 19 19 19 19 19 19 19 17 17 15 14 13 12 11 11 10 8 6 5 5 7 10 12 16 17
30 30 31 31 29 28 27 27 25 24 24 24 23 22 21 21 21 22 21 21 20 20 19 19 19 19 19 17 15 13 12 11 9 8 6 5 6 8 10 11 12 14 18
36 36 36 35 34 31 29 29 28 27 27 26 25 25 24 24 23 23 22 22 21 21 21 22 22 22 20 18 16 14 12 10 7 6 5 6 8 10 14 17 18 20 20
41 42 42 39 37 34 33 32 31 30 29 28 28 27 26 25 24 23 23 23 23 24 24 25 24 23 21 20 18 15 12 9 7 6 6 8 10 13 17 21 23 23 22
43 45 45 43 41 39 36 35 35 33 32 31 30 29 27 27 25 25 25 25 25 25 25 25 25 23 21 19 16 14 12 10 8 7 8 10 13 15 17 20 24 27 24
39 41 42 43 45 44 40 39 38 36 35 33 32 31 30 27 28 28 28 27 26 26 26 26 25 23 21 18 15 14 10 8 8 9 10 11 14 16 18 20 22 24 26
36 38 39 41 44 45 44 42 40 38 36 34 32 31 29 28 29 29 28 28 27 27 26 25 24 22 20 17 14 12 10 9 9 10 11 13 15 17 17 19 21 22 22
35 37 38 40 39 44 46 44 41 37 35 33 32 30 29 27 29 28 27 29 29 28 27 25 24 21 18 16 14 12 11 11 11 10 11 13 15 17 18 19 20 23 25
31 31 33 35 36 39 43 44 41 37 35 33 33 32 30 28 30 27 28 29 29 29 27 24 23 21 19 16 14 12 12 10 11 10 12 13 13 15 18 19 20 22 23
31 30 29 31 32 33 36 40 40 37 36 35 34 33 32 30 30 28 29 29 28 26 25 25 22 21 19 15 13 12 11 11 11 10 12 13 12 14 16 18 19 20 21
31 32 30 28 27 30 30 36 38 38 36 36 35 33 33 32 30 27 22 24 27 27 25 23 20 18 16 14 13 11 9 10 10 10 12 13 14 15 16 17 17 18 19
30 31 30 30 29 28 28 33 37 38 38 38 37 35 34 31 28 24 24 23 26 25 24 20 18 17 15 12 11 10 10 11 11 11 12 13 13 15 16 16 18 17 17
32 30 29 28 30 30 30 33 37 40 40 38 39 38 37 35 32 29 26 24 23 23 21 20 19 16 12 12 11 11 11 11 12 12 13 13 13 14 16 17 19 20 18
30 29 28 28 29 29 31 33 36 38 38 37 38 37 36 37 36 34 29 24 19 16 16 16 16 15 13 12 12 12 13 13 13 14 14 14 14 14 15 17 19 20 20
29 27 26 26 28 28 29 31 32 32 29 31 32 32 32 32 33 33 28 23 22 23 19 20 17 14 12 13 13 13 14 14 14 14 14 14 15 15 15 17 19 20 21
26 26 25 25 27 28 28 29 30 24 23 26 26 26 27 27 28 27 24 22 21 22 19 15 15 14 13 14 14 14 14 14 14 14 15 15 15 16 16 17 18 19 20
22 22 21 22 23 25 26 27 27 26 26 21 18 20 21 22 23 23 21 22 23 18 17 15 12 14 16 16 14 14 14 14 14 14 15 16 17 16 17 17 18 20 20
18 18 19 19 19 21 22 23 23 24 26 23 21 18 17 20 22 20 23 26 21 19 16 13 14 16 16 15 14 13 13 14 14 15 16 17 18 18 17 18 18 18 20
13 15 16 16 16 16 18 18 20 22 22 23 24 20 24 27 23 24 25 25 22 19 16 15 16 16 15 15 14 14 14 14 15 16 16 17 18 19 19 19 19 20 19
10 11 11 12 11 12 13 15 18 20 21 22 20 18 18 19 16 21 24 23 19 16 16 16 16 16 16 16 15 15 14 15 16 17 18 18 19 19 21 21 20 20 22
8 8 8 9 9 11 13 14 16 18 20 20 19 18 17 19 19 19 19 19 19 20 19 18 17 17 17 16 16 16 16 15 16 18 19 19 20 20 21 21 21 21 22
8 9 8 8 9 10 11 12 13 15 16 17 17 18 19 20 16 16 17 18 20 19 19 18 17 17 17 18 18 18 17 16 17 20 21 20 20 21 21 22 22 22 23
9 9 8 8 9 10 10 11 12 13 14 14 15 16 17 18 18 18 18 18 19 19 19 19 18 18 18 18 18 19 19 18 20 21 22 21 21 20 22 22 21 21 22
10 10 10 10 10 10 10 11 11 12 13 14 15 16 16 17 18 18 18 19 19 20 20 20 19 18 18 19 19 20 21 21 21 22 23 23 23 22 22 22 21 21 21
12 13 13 12 12 12 12 12 13 14 14 15 16 16 17 18 18 19 19 20 20 20 20 20 20 20 20 20 20 21 22 22 22 22 24 24 24 23 22 22 21 21 20
Wind_Direction
274 270 266 265 266 267 266 266 264 262 262 260 258 256 252 249 247 245 244 243 243 241 240 237 234 230 226 220 210 198 189 189 190 193 204 220 260 306 328 334 338 339 345
277 268 264 263 263 263 264 264 262 260 256 253 250 247 245 246 248 249 248 246 242 239 236 233 229 223 216 211 206 201 198 195 196 192 201 222 257 292 321 330 337 337 340
276 273 268 264 264 264 263 261 258 255 251 247 245 245 247 249 248 246 244 242 239 235 233 228 222 219 214 211 210 209 209 206 201 204 220 253 291 310 317 322 329 334 335
278 275 272 268 265 263 261 260 258 255 251 249 247 247 247 246 245 245 243 239 236 232 229 226 221 216 213 213 215 219 222 224 224 232 253 281 297 312 318 322 326 335 335
279 275 275 272 265 261 257 256 253 251 250 249 249 249 248 246 245 242 239 236 235 232 228 222 218 218 218 218 218 221 226 235 247 261 275 293 310 320 325 329 329 331 334
285 280 274 269 263 260 258 255 253 252 251 251 251 249 247 245 242 238 235 235 233 230 226 222 220 221 221 222 226 231 235 243 255 274 291 304 313 318 322 325 328 330 344
291 287 278 270 263 260 257 254 253 251 250 249 247 245 242 239 239 238 236 233 231 228 225 225 224 223 223 224 227 234 239 254 268 286 296 303 310 314 320 323 326 334 337
289 285 281 273 264 258 255 253 250 247 246 245 244 241 238 237 239 238 236 233 232 228 227 227 229 229 229 229 232 242 255 267 278 285 295 303 308 309 317 322 327 330 329
295 289 286 280 269 259 254 251 249 247 246 245 242 241 240 237 240 240 237 230 227 229 229 228 231 232 231 232 230 237 246 260 272 285 292 297 304 312 320 323 322 321 327
308 300 291 285 277 266 258 253 251 248 247 243 242 241 240 237 239 239 234 223 224 226 225 229 230 229 230 232 229 235 246 256 269 279 289 294 302 310 315 319 323 325 330
304 300 295 289 283 274 262 252 247 244 242 239 237 237 237 234 235 237 236 224 227 230 229 226 226 228 232 232 233 239 248 257 262 276 286 290 302 310 312 317 321 324 326
301 298 294 290 283 274 262 251 244 240 239 238 235 232 231 230 228 232 232 230 230 229 229 226 224 232 236 236 237 246 251 260 270 282 287 293 308 310 311 314 316 320 323
296 292 287 284 273 262 258 250 242 239 235 234 231 228 225 224 220 224 229 232 231 232 229 226 223 230 238 241 248 256 264 270 279 283 286 297 303 305 306 310 311 313 317
295 293 286 277 269 262 251 240 235 237 236 232 231 225 222 220 218 217 225 232 232 230 220 220 223 228 238 246 264 269 273 282 287 289 292 297 302 304 305 306 307 310 315
289 288 286 276 266 255 247 242 236 237 239 239 236 234 228 222 222 223 228 224 231 231 221 223 229 229 235 244 259 272 278 283 286 289 294 301 304 305 305 307 309 313 321
290 287 282 276 268 258 247 240 238 240 239 241 240 242 237 235 228 226 222 222 222 231 233 224 224 228 241 255 259 267 272 278 284 290 296 300 300 304 305 305 307 313 319
288 283 278 272 263 256 249 243 239 239 234 235 238 239 237 230 219 217 217 215 224 229 218 214 224 237 245 251 258 263 270 277 283 289 294 297 300 302 304 306 309 315 321
288 284 280 274 268 260 252 246 242 235 217 214 218 224 220 209 199 188 185 188 199 223 225 236 236 244 248 250 256 262 270 276 282 288 291 294 298 303 306 309 312 318 321
294 285 279 271 264 256 250 242 234 222 216 206 186 190 182 182 184 179 193 215 227 229 238 239 245 246 248 254 259 265 271 280 284 287 291 295 299 303 307 308 311 315 316
299 290 283 278 269 256 246 236 226 221 216 210 202 197 187 190 190 188 208 223 229 240 244 249 250 251 254 258 263 269 274 278 281 285 288 292 295 302 305 305 309 311 314
306 296 285 276 265 253 241 227 218 212 210 208 208 209 213 216 204 209 219 230 241 253 255 253 253 255 258 262 266 270 275 278 280 283 286 289 295 300 300 302 304 306 310
299 288 274 261 254 241 231 221 212 213 217 220 220 222 227 233 232 232 232 239 248 252 255 257 257 259 261 266 270 273 275 276 280 281 284 290 293 295 296 297 298 301 304
286 277 270 258 246 237 233 227 223 222 223 226 230 233 233 243 242 245 248 248 250 254 256 258 261 264 266 268 270 273 278 283 282 282 286 287 291 295 295 295 295 297 303
279 272 264 255 247 240 236 236 236 235 235 235 236 237 239 244 249 251 251 253 257 260 261 262 262 263 266 270 274 278 282 282 281 283 284 287 290 292 291 292 294 297 303
275 270 266 261 256 251 247 245 245 245 245 245 246 247 249 252 255 257 258 258 258 259 262 263 265 267 270 272 275 277 279 279 280 283 285 288 288 290 289 289 293 298 299
268 267 265 262 260 258 256 253 252 251 252 252 253 254 256 258 259 259 260 262 263 263 264 267 269 269 269 271 274 275 277 280 284 286 285 286 287 289 289 289 290 295 294